星链-36946(STARLINK-36946)

导读

STARLINK-36946(NORAD编号68382)是SpaceX星链星座中的一颗低轨通信卫星,属于Starlink第二代卫星组网批次。星链项目是全球规模最大的低轨卫星互联网计划,该卫星运行在近地轨道,将在2026年跟随星链整体调轨计划,从550公里原轨道高度降至480公里,以此降低太空碰撞风险,缩短退役卫星再入大气层的坠毁时间。它搭载相控阵天线,支持Ku/Ka频段通信,可为全球偏远地区、航空航海等场景提供低延迟宽带网络服务,是星链实现全球覆盖的组网单元之一。

基本信息
目录编号:
68382
目录名称:
STARLINK-36946
国际标识:
2026-063C
轨道中心:
EARTH
卫星名称:
星链-36946
卫星全名:
星链-36946(STARLINK-36946)
卫星状态:
在轨 (已飞行163 天)
发射日期:
2026-03-26 UTC
国别 :
美国 (US)
星等 :
--
轨道信息
数据来源 国际轨道数据
星历时间: 2026-09-04T23:44:51+0800
13小时前
查看轨道信息
半长轴: 6843.666km
偏心率: 0.0000911
轨道倾角: 97.285°
近地点辐角 88.481°
升交点赤经 28.790°
平近点角 271.654°
近地点: 464.905km
远地点: 466.153km
周期: 93.906分钟
每日圈数: 15.334501
详细信息
固有亮度:
5
最大亮度:
2.5
卫星平台:
Starlink V1.0
覆盖范围:
全球
运营商:
太空探索技术公司
运营商所在国:
美国
制造商(研发单位):
太空探索技术公司
制造商所在国:
美国
使用方式:
暂无
卫星简介
Starlink 计划是 SpaceX 推出的全球卫星互联网项目,通过发射低轨道卫星,为全球尤其是偏远地区提供高速、低延迟的互联网服务。自 2019 年起,Starlink 已部署数千颗卫星,旨在缩小全球数字鸿沟,推动互联网普及。该项目还为军事、航空等行业提供通信支持,带来广泛经济效益。
2D轨道图
3D轨道图
轨道高度分析图
轨道倾角分析图
轨道综合分析图
查看轨道综合分析图
交会数据列表
事件ID 空间交会对象 最接近时刻(TCA) 交会距离 交会风险概率(CRP) 交会风险指数(CRI) 操作
CDM_260829-192004-777206-838222
2026-08-29T
19:20:40+0000
2.345 km
极远距离
1.787578E-6 低风险 0.4
CDM_260903-123205-250106-838221
2026-09-03T
12:32:58+0000
2.275 km
极远距离
1.58779E-6 低风险 0.39
CDM_260905-101005-322406-838222
2026-09-05T
10:10:41+0000
2.685 km
极远距离
1.263495E-6 低风险 0.37
CDM_260907-015205-298806-838221
2026-09-07T
01:52:00+0000
2.528 km
极远距离
1.175298E-6 低风险 0.36